Regional Weather Roundup
Issued by NWS

Home | Current Version | Previous Version | Text Only | Print | Product List | Glossary On
Versions: 1 2 3 4 5 6 7 8 9 10 11 12 13 14 15 16 17 18 19 20 21 22 23 24 25 26 27 28 29 30 31 32 33 34 35 36 37 38 39 40 41 42 43 44 45 46 47 48 49 50
871
ASUS43 KLMK 250902
RWRKY
KENTUCKY REGIONAL WEATHER ROUNDUP
NATIONAL WEATHER SERVICE LOUISVILLE KY
500 AM EDT SAT MAR 25 2017

NOTE "FAIR" INDICATES FEW OR NO CLOUDS BELOW 12,000 FEET
WITH NO SIGNIFICANT WEATHER AND/OR OBSTRUCTIONS TO VISIBILITY.

KYZ001>023-026-027-061>063-070>075-251000-
WESTERN AND SOUTH CENTRAL KENTUCKY

CITY           SKY/WX    TMP DP  RH WIND       PRES   REMARKS
PADUCAH        HVY RAIN  58  53  84 W25G41    29.99R
HENDERSON      PTCLDY    63  52  67 S16       29.96F
OWENSBORO      CLOUDY    63  53  70 S14       30.00F
HOPKINSVILLE   PTCLDY    67  55  63 S9G18     30.01F
BOWLING GREEN  PTCLDY    67  50  54 S13       30.06F
GLASGOW        NOT AVBL
$$

KYZ024-025-028>034-038-045-046-053-251000-
NORTH CENTRAL KENTUCKY

CITY           SKY/WX    TMP DP  RH WIND       PRES   REMARKS
LOUISVILLE/SDF MOCLDY    61  48  62 SE9       30.06F
LOUISVILLE/LOU PTCLDY    63  49  60 SE7       30.07F
FORT KNOX      PTCLDY    60  49  66 SE9       30.04F
$$

KYZ035>037-039>044-047>052-055>060-089>105-251000-
NORTHEAST KENTUCKY

CITY           SKY/WX    TMP DP  RH WIND       PRES   REMARKS
LEXINGTON      PTCLDY    58  47  66 SE10      30.13F
COVINGTON      CLOUDY    58  51  78 S10       30.10F
FRANKFORT      CLOUDY    58  47  66 SE6       30.10F
$$

KYZ054-064>069-076>088-106>120-251000-
SOUTHEAST KENTUCKY

CITY           SKY/WX    TMP DP  RH WIND       PRES   REMARKS
JACKSON        CLOUDY    62  46  55 SE5       30.18F
LONDON         PTCLDY    61  45  55 SE6       30.17S
SOMERSET       NOT AVBL
MIDDLESBORO    CLOUDY    51  48  87 CALM      30.21S
MONTICELLO     PTSUNNY   62  48  60 VRB7      30.16S
$$





USA.gov is the U.S. government's official web portal to all federal, state and local government web resources and services.